Weather in Sergiyevka

Russia / Belgorod Oblast     51°12′25″N   37°28′53″E
temp.,
°C
wind,
m/s
gust,
m/s
humid.,
%
clouds,
%
prec.,
mm/h
press.,
hPa
HPBL,
m
20 january, thu
thu2000:00−21wnw2110057 0.0 102110
03:00−21wsw2210097 0.0 102011
06:00−15ssw239484 0.0 101854
09:00−16ssw389561 0.0 1018109
12:00−10ssw5108945 0.0 1017239
15:00−9s5118932 0.0 1015308
18:00−10s5149134 0.0 1014273
21:00−9s61594100 0.0 1012387
21 january, fri
fri2100:00−7s61594100 0.2 1011412
03:00−6sse71595100 0.9 1008469
06:00−5s71695100 1.2 1004622
09:00−2s61397100 2.9 1002678
12:00−2sw6109385 0.6 1002604
15:00−3wsw6119099 1.5 1003790
18:00−6sw6149171 0.0 1005466
21:00−4sw71490100 0.1 1005757
22 january, sat
sat2200:00−5sw81591100 0.1 1006596
03:00−6ssw7149180 0.1 1007533
06:00−7ssw6139291 0.0 1007397
09:00−10s41196100 0.0 1009243
12:00−7s51094100 0.0 1011345
15:00−6s3794100 0.1 1012361
18:00−8s2597100 0.1 101491
21:00−13sse22100100 0.1 101618
23 january, sun
sun2300:00−11sse119870 0.1 101712
03:00−15se11100100 0.1 10199
06:00−16ene11100100 0.1 10219
09:00−17ne22100100 0.1 102320
12:00−9ne3496100 0.0 1024161
15:00−8nne4995100 0.1 1024297
18:00−9nne51392100 0.0 1025307
21:00−8nne61589100 0.0 1025438
24 january, mon
mon2400:00−7nne71595100 1.0 1024529
03:00−6ne71495100 3.3 1023543
06:00−5ne71495100 1.3 1023593
09:00−6ene61194100 1.6 1024487
12:00−6ene5893100 0.2 1026433
15:00−6ne4895100 0.3 1026448
18:00−8ne4996100 0.1 1026234
21:00−10nne3797100 0.1 1026151